Location: Grange Rosano
(44.4500°N, 6.9667°E)
Time: 08:29:07
(UTC+00:00)

Cosmos 1140 Rocket - Pass Details

Date: 26 May 2022
Orbit: 743 x 767 km, 74.1° (Epoch: 01 July)

Event Time Altitude Azimuth Distance (km) Brightness Sun altitude
Rises 02:56:31 0° 336° (NNW) 3,246 7.0 -9.2°
Reaches altitude 10° 02:58:55 10° 334° (NNW) 2,316 6.2 -8.8°
Maximum altitude 03:04:07 66° 253° (WSW) 838 3.5 -8.1°
Drops below altitude 10° 03:09:17 10° 172° (S) 2,294 5.7 -7.4°
Sets 03:11:39 0° 170° (S) 3,213 6.4 -7.1°
